Flag for Morocco Weather past 2 weeks in Tangier, Morocco

Now
70 °F

Passing clouds.


Feels Like: 70 °F
Forecast: 55 / 84 °F
Wind: 6 mph from North

Location: Tanger Aerodrome

Current Time: May 30, 2015 at 7:57:04 PM

Latest Report: May 30, 2015 at 7:30 PM


Visibility: N/A

Pressure: 30.04 "Hg

Humidity: 78%

Dew point: 63 °F

Location of TangierLocation

Historic Weather in Tangier — Graph

°F

Tangier temperature yesterday

Maximum temperature yesterday: 75 °F (at 11:30 AM)
Minimum temperature yesterday: 64 °F (at 11:30 PM)
Average temperature yesterday: 70 °F

Past Weeks' High & Low Weather Summary

 TemperatureHumidityPressure
High88 °F (May 27, 12:30 PM)94% (May 19, 1:00 AM)30.15 "Hg (May 19, 1:00 AM)
Low54 °F (May 16, 1:00 AM)25% (May 27, 12:30 PM)29.83 "Hg (May 28, 5:00 PM)
Average70 °F59%29.98 "Hg
* Reported May 15 7:00 PM — May 30 7:00 PM, Tangier, Weather by CustomWeather, © 2015

Note: Actual official high and low records may vary slightly from our data, if they occured in-between our weather recording intervals... More about our weather records

Advertising

Tangier weather history for previous 24 hours

 ConditionsComfort  
Time TempWeatherWind HumidityBarometerVisibility
7:00 PM
Sat, May 30
72 °FPassing clouds.7 mph73%30.04 "HgN/A
6:00 PM72 °FPassing clouds.8 mph73%30.04 "HgN/A
5:30 PM73 °FPassing clouds.9 mph65%30.04 "HgN/A
5:00 PM73 °FPassing clouds.9 mph69%30.04 "HgN/A
4:30 PM73 °FPassing clouds.10 mph65%30.04 "HgN/A
4:00 PM75 °FPassing clouds.9 mph61%30.04 "HgN/A
3:30 PM75 °FPassing clouds.10 mph61%30.04 "HgN/A
3:00 PM73 °FPassing clouds.9 mph65%30.07 "HgN/A
2:30 PM73 °FPassing clouds.10 mph65%30.07 "HgN/A
2:00 PM73 °FPassing clouds.10 mph65%30.07 "HgN/A
1:30 PM73 °FPassing clouds.12 mph65%30.07 "HgN/A
1:00 PM73 °FPassing clouds.9 mph65%30.07 "HgN/A
12:30 PM73 °FPassing clouds.9 mph65%30.07 "HgN/A
12:00 PM73 °FPassing clouds.9 mph61%30.07 "Hg5 mi
11:30 AM73 °FPassing clouds.9 mph61%30.07 "Hg5 mi
11:00 AM72 °FPassing clouds.9 mph65%30.07 "Hg5 mi
10:30 AM72 °FPassing clouds.9 mph69%30.07 "Hg5 mi
10:00 AM72 °FScattered clouds.7 mph69%30.07 "Hg4 mi
9:30 AM70 °FPartly sunny.3 mph73%30.07 "Hg4 mi
9:00 AM68 °FPartly sunny.3 mph83%30.07 "Hg4 mi
8:30 AM68 °FPartly sunny.6 mph83%30.07 "Hg4 mi
8:00 AM66 °FFog.5 mph88%30.07 "Hg2 mi
7:30 AM66 °FFog.6 mph88%30.07 "Hg2 mi
7:00 AM66 °FFog.6 mph88%30.07 "Hg2 mi
6:30 AM66 °FMild.5 mph88%30.04 "Hg1 mi
6:00 AM64 °FPassing clouds.5 mph94%30.04 "Hg1 mi
5:30 AM64 °FPassing clouds.7 mph94%30.04 "Hg1 mi
5:00 AM64 °FFog.9 mph94%30.04 "Hg2 mi
4:30 AM64 °FFog.8 mph94%30.04 "Hg1 mi
4:00 AM64 °FFog.8 mph94%30.04 "Hg1 mi
3:30 AM64 °FFog.8 mph94%30.04 "Hg1 mi
3:00 AM66 °FFog.6 mph88%30.04 "Hg1 mi
2:30 AM63 °FFog.5 mph94%30.04 "Hg2 mi
2:00 AM63 °FFog.3 mph88%30.04 "Hg2 mi
1:30 AM61 °FClear.2 mph88%30.04 "Hg4 mi
1:00 AM63 °FClear.2 mph88%30.04 "Hg4 mi
12:30 AM63 °FClear.3 mph88%30.04 "Hg4 mi
12:00 AM64 °FClear.2 mph88%30.04 "Hg4 mi
11:30 PM
Fri, May 29
64 °FClear.3 mph88%30.04 "Hg4 mi
11:00 PM66 °FClear.3 mph83%30.04 "Hg4 mi
10:30 PM66 °FClear.5 mph83%30.04 "Hg4 mi
9:30 PM68 °FClear.6 mph78%30.01 "Hg4 mi
9:00 PM68 °FPassing clouds.7 mph78%30.01 "Hg5 mi
8:30 PM70 °FScattered clouds.7 mph73%30.01 "Hg5 mi
8:00 PM70 °FScattered clouds.10 mph73%30.01 "Hg5 mi
7:00 PM72 °FScattered clouds.12 mph73%30.01 "Hg5 mi
Weather by CustomWeather, © 2015

See weather overviewHow to use our weather pages